Satellite: NOAA-11 Catalog number: 19531 Epoch time: 11068.27970790 Element set: 0429 Inclination: 098.7529 deg RA of node: 157.6320 deg Eccentricity: 0.0011906 Arg of perigee: 111.5690 deg Mean anomaly: 248.6746 deg Mean motion: 14.14906489 rev/day Decay rate: 1.39e-06 rev/day^2 Epoch rev: 15862 Checksum: 325
Satellite: NOAA-12 Catalog number: 21263 Epoch time: 11068.78128562 Element set: 0925 Inclination: 098.7563 deg RA of node: 086.7778 deg Eccentricity: 0.0013228 Arg of perigee: 113.7278 deg Mean anomaly: 246.5288 deg Mean motion: 14.25688566 rev/day Decay rate: 8.3e-07 rev/day^2 Epoch rev: 03024 Checksum: 331
Satellite: MET-3/5 Catalog number: 21655 Epoch time: 11068.84298161 Element set: 0057 Inclination: 082.5559 deg RA of node: 120.9717 deg Eccentricity: 0.0014506 Arg of perigee: 049.8343 deg Mean anomaly: 310.3962 deg Mean motion: 13.17026925 rev/day Decay rate: 5.1e-07 rev/day^2 Epoch rev: 94064 Checksum: 302
Satellite: MET-2/21 Catalog number: 22782 Epoch time: 11068.46458113 Element set: 0038 Inclination: 082.5461 deg RA of node: 041.9897 deg Eccentricity: 0.0023129 Arg of perigee: 022.5425 deg Mean anomaly: 337.6750 deg Mean motion: 13.83653002 rev/day Decay rate: -1.0e-08 rev/day^2 Epoch rev: 88476 Checksum: 295
Satellite: OKEAN-4 Catalog number: 23317 Epoch time: 11068.57690294 Element set: 0495 Inclination: 082.5380 deg RA of node: 106.1500 deg Eccentricity: 0.0023924 Arg of perigee: 087.3913 deg Mean anomaly: 273.0030 deg Mean motion: 14.82955932 rev/day Decay rate: 4.79e-06 rev/day^2 Epoch rev: 88578 Checksum: 315
Satellite: NOAA-14 Catalog number: 23455 Epoch time: 11068.81605448 Element set: 0408 Inclination: 098.8545 deg RA of node: 152.4290 deg Eccentricity: 0.0008917 Arg of perigee: 197.7621 deg Mean anomaly: 162.3235 deg Mean motion: 14.13808551 rev/day Decay rate: 4.3e-07 rev/day^2 Epoch rev: 83503 Checksum: 303
Satellite: NOAA-15 Catalog number: 25338 Epoch time: 11068.66355225 Element set: 0737 Inclination: 098.6473 deg RA of node: 056.2098 deg Eccentricity: 0.0011121 Arg of perigee: 027.2353 deg Mean anomaly: 332.9404 deg Mean motion: 14.24887583 rev/day Decay rate: -7.2e-07 rev/day^2 Epoch rev: 66655 Checksum: 313
Satellite: RESURS Catalog number: 25394 Epoch time: 11068.62836308 Element set: 0744 Inclination: 098.2993 deg RA of node: 077.1351 deg Eccentricity: 0.0001686 Arg of perigee: 131.0021 deg Mean anomaly: 229.1309 deg Mean motion: 14.24224954 rev/day Decay rate: 4.0e-08 rev/day^2 Epoch rev: 65813 Checksum: 284
Satellite: FENGYUN1 Catalog number: 25730 Epoch time: 11068.79678935 Element set: 0276 Inclination: 098.8102 deg RA of node: 032.2081 deg Eccentricity: 0.0022046 Arg of perigee: 231.0008 deg Mean anomaly: 128.9207 deg Mean motion: 14.08522492 rev/day Decay rate: 7.69e-06 rev/day^2 Epoch rev: 60907 Checksum: 294
Satellite: OKEAN-0 Catalog number: 25860 Epoch time: 11068.56023678 Element set: 0250 Inclination: 097.8716 deg RA of node: 037.8179 deg Eccentricity: 0.0001044 Arg of perigee: 044.8983 deg Mean anomaly: 315.2327 deg Mean motion: 14.73720739 rev/day Decay rate: 2.56e-06 rev/day^2 Epoch rev: 62598 Checksum: 318
Satellite: NOAA-16 Catalog number: 26536 Epoch time: 11068.63169488 Element set: 0218 Inclination: 099.1512 deg RA of node: 097.1063 deg Eccentricity: 0.0009905 Arg of perigee: 314.9166 deg Mean anomaly: 045.1229 deg Mean motion: 14.12601327 rev/day Decay rate: 2.28e-06 rev/day^2 Epoch rev: 53930 Checksum: 299
Satellite: NOAA-17 Catalog number: 27453 Epoch time: 11068.62942013 Element set: 0214 Inclination: 098.3923 deg RA of node: 112.8540 deg Eccentricity: 0.0012685 Arg of perigee: 082.0012 deg Mean anomaly: 278.2588 deg Mean motion: 14.24243324 rev/day Decay rate: 6.1e-07 rev/day^2 Epoch rev: 45248 Checksum: 279
Satellite: NOAA-18 Catalog number: 28654 Epoch time: 11068.64465417 Element set: 0697 Inclination: 098.9859 deg RA of node: 019.6042 deg Eccentricity: 0.0014867 Arg of perigee: 028.3409 deg Mean anomaly: 331.8566 deg Mean motion: 14.11443070 rev/day Decay rate: 1.19e-06 rev/day^2 Epoch rev: 29888 Checksum: 344
Satellite: NOAA-19 Catalog number: 33591 Epoch time: 11068.61984449 Element set: 0890 Inclination: 098.8192 deg RA of node: 010.4912 deg Eccentricity: 0.0013188 Arg of perigee: 257.6723 deg Mean anomaly: 102.2970 deg Mean motion: 14.11135789 rev/day Decay rate: 5.0e-07 rev/day^2 Epoch rev: 10734 Checksum: 308
/EX SB KEPS @ AMSAT $ORB11069.M Orbital Elements 11069.MISC
HR AMSAT ORBITAL ELEMENTS FOR MANNED AND MISCELLANEOUS SATELLITES FROM WA5QGD FORT WORTH,TX March 10, 2011 Send Subscribe/unsubscribe to KEPS at http://www.amsat.org/mailman/listinfo/keps BID: ORB11069.M TO ALL RADIO AMATEURS BT
Satellite: HUBBLE Catalog number: 20580 Epoch time: 11069.06620450 Element set: 724 Inclination: 028.4715 deg RA of node: 303.8711 deg Eccentricity: 0.0003545 Arg of perigee: 147.4930 deg Mean anomaly: 212.6124 deg Mean motion: 15.01196317 rev/day Decay rate: 1.212e-05 rev/day^2 Epoch rev: 94474 Checksum: 257
Satellite: ISS Catalog number: 25544 Epoch time: 11069.85678132 Element set: 977 Inclination: 051.6457 deg RA of node: 305.2770 deg Eccentricity: 0.0005837 Arg of perigee: 054.4251 deg Mean anomaly: 048.1894 deg Mean motion: 15.72585793 rev/day Decay rate: 2.6254e-04 rev/day^2 Epoch rev: 70542 Checksum: 326
Satellite: CO-58 Catalog number: 28895 Epoch time: 11069.65539151 Element set: 820 Inclination: 097.9825 deg RA of node: 309.7766 deg Eccentricity: 0.0018114 Arg of perigee: 166.5575 deg Mean anomaly: 193.6094 deg Mean motion: 14.60023717 rev/day Decay rate: 4.63e-06 rev/day^2 Epoch rev: 28586 Checksum: 350
Satellite: FALCON Catalog number: 30776 Epoch time: 11068.89704845 Element set: 0046 Inclination: 035.4331 deg RA of node: 230.5297 deg Eccentricity: 0.0002072 Arg of perigee: 305.8753 deg Mean anomaly: 054.1771 deg Mean motion: 15.04190013 rev/day Decay rate: 2.211e-05 rev/day^2 Epoch rev: 22008 Checksum: 258
Satellite: MAST Catalog number: 31126 Epoch time: 11069.81586657 Element set: 103 Inclination: 097.9057 deg RA of node: 102.5585 deg Eccentricity: 0.0095624 Arg of perigee: 116.7213 deg Mean anomaly: 244.3821 deg Mean motion: 14.53684531 rev/day Decay rate: 2.09e-06 rev/day^2 Epoch rev: 20679 Checksum: 298
Satellite: CAPE1 Catalog number: 31130 Epoch time: 11068.60736582 Element set: 123 Inclination: 097.9105 deg RA of node: 098.3404 deg Eccentricity: 0.0103326 Arg of perigee: 129.9629 deg Mean anomaly: 231.0693 deg Mean motion: 14.52304728 rev/day Decay rate: 4.08e-06 rev/day^2 Epoch rev: 20618 Checksum: 278
Satellite: COMPASS Catalog number: 32787 Epoch time: 11068.17168933 Element set: 0930 Inclination: 097.8585 deg RA of node: 133.8170 deg Eccentricity: 0.0016299 Arg of perigee: 139.5998 deg Mean anomaly: 220.6416 deg Mean motion: 14.82180175 rev/day Decay rate: 1.283e-05 rev/day^2 Epoch rev: 15474 Checksum: 330
Satellite: AAUSAT2 Catalog number: 32788 Epoch time: 11068.14740426 Element set: 918 Inclination: 097.8571 deg RA of node: 133.9855 deg Eccentricity: 0.0015826 Arg of perigee: 139.2801 deg Mean anomaly: 220.9651 deg Mean motion: 14.82346946 rev/day Decay rate: 1.521e-05 rev/day^2 Epoch rev: 15475 Checksum: 320
Satellite: DO-64 Catalog number: 32789 Epoch time: 11069.87135537 Element set: 936 Inclination: 097.8669 deg RA of node: 136.5101 deg Eccentricity: 0.0016159 Arg of perigee: 132.9462 deg Mean anomaly: 227.3152 deg Mean motion: 14.82670023 rev/day Decay rate: 2.422e-05 rev/day^2 Epoch rev: 15501 Checksum: 310
Satellite: CO-66 Catalog number: 32791 Epoch time: 11068.16873850 Element set: 0921 Inclination: 097.8585 deg RA of node: 133.7832 deg Eccentricity: 0.0016592 Arg of perigee: 138.3508 deg Mean anomaly: 221.8957 deg Mean motion: 14.81915678 rev/day Decay rate: 1.299e-05 rev/day^2 Epoch rev: 15469 Checksum: 359
Satellite: RS-30 Catalog number: 32953 Epoch time: 11069.38749899 Element set: 538 Inclination: 082.4985 deg RA of node: 224.1344 deg Eccentricity: 0.0018228 Arg of perigee: 240.4050 deg Mean anomaly: 119.5236 deg Mean motion: 12.43010892 rev/day Decay rate: 1.0e-07 rev/day^2 Epoch rev: 12681 Checksum: 294
Satellite: TACSAT-3 Catalog number: 35001 Epoch time: 11068.92613669 Element set: 0536 Inclination: 040.4546 deg RA of node: 054.0615 deg Eccentricity: 0.0022101 Arg of perigee: 196.5801 deg Mean anomaly: 163.4301 deg Mean motion: 15.45396442 rev/day Decay rate: 1.9688e-04 rev/day^2 Epoch rev: 10170 Checksum: 274
Satellite: PHARMSAT Catalog number: 35002 Epoch time: 11068.36628161 Element set: 0493 Inclination: 040.4688 deg RA of node: 054.9183 deg Eccentricity: 0.0024802 Arg of perigee: 195.1744 deg Mean anomaly: 164.8343 deg Mean motion: 15.45495646 rev/day Decay rate: 1.4137e-04 rev/day^2 Epoch rev: 10164 Checksum: 295
Satellite: HAWKSAT1 Catalog number: 35003 Epoch time: 11068.97138317 Element set: 0540 Inclination: 040.4576 deg RA of node: 033.7899 deg Eccentricity: 0.0028281 Arg of perigee: 225.6415 deg Mean anomaly: 134.2233 deg Mean motion: 15.53574565 rev/day Decay rate: 4.8176e-04 rev/day^2 Epoch rev: 10193 Checksum: 298
Satellite: CP6 Catalog number: 35004 Epoch time: 11069.21405614 Element set: 543 Inclination: 040.4590 deg RA of node: 027.5709 deg Eccentricity: 0.0025433 Arg of perigee: 232.1310 deg Mean anomaly: 127.7225 deg Mean motion: 15.56294191 rev/day Decay rate: 6.3231e-04 rev/day^2 Epoch rev: 10201 Checksum: 246
Satellite: AEROCUB3 Catalog number: 35005 Epoch time: 11006.09222617 Element set: 610 Inclination: 040.4461 deg RA of node: 021.7975 deg Eccentricity: 0.0025578 Arg of perigee: 084.1677 deg Mean anomaly: 280.7191 deg Mean motion: 16.39196088 rev/day Decay rate: 1.4049365e-01 rev/day^2 Epoch rev: 9254 Checksum: 305
